Location: Waco, TX
(31.5480°N, 97.1670°W)
Time: 01:02:04
(UTC-05:00)

ISS - Pass Details

Date: 10 August 2018
Orbit: 402 x 409 km, 51.6° (Epoch: 16 August)

Event Time Altitude Azimuth Distance (km) Brightness Sun altitude
Rises 12:41:18 0° 208° (SSW) 2,297 0.1 69.9°
Reaches altitude 10° 12:43:27 10° 200° (SSW) 1,441 -0.7 70.2°
Maximum altitude 12:46:27 37° 131° (SE) 638 -1.7 70.6°
Drops below altitude 10° 12:49:30 10° 62° (ENE) 1,449 -0.8 70.9°
Sets 12:51:39 0° 53° (NE) 2,311 0.0 71.2°
